Regional Weather Roundup
Issued by NWS

Home | Current Version | Previous Version | Graphics & Text | Print | Product List | Glossary On
Versions: 1 2 3 4 5 6 7 8 9 10 11 12 13 14 15 16 17 18 19 20 21 22 23 24 25 26 27 28 29 30 31 32 33 34 35 36 37 38 39 40 41 42 43 44 45 46 47 48 49 50
000
ASUS43 KMPX 202110
RWRMN
WEATHER ROUNDUP FOR MINNESOTA
NATIONAL WEATHER SERVICE TWIN CITIES/CHANHASSEN MN
400 PM CDT MON OCT 20 2014


NOTE: "FAIR" INDICATES FEW OR NO CLOUDS BELOW 12,000 FEET WITH NO
SIGNIFICANT WEATHER AND/OR OBSTRUCTIONS TO VISIBILITY. N/A MEANS
CURRENT SKY AND/OR WEATHER CONDITIONS ARE NOT AVAILABLE.

MNZ060>063-068>070-202200-
   Twin Cities Metro

CITY           SKY/WX    TMP DP  RH WIND       PRES   REMARKS
TWIN CITIES    SUNNY     63  42  46 NW8       29.98R
ST PAUL        SUNNY     62  41  46 NW14G20   29.98S
CRYSTAL        SUNNY     64  41  42 NW12      29.98R
BLAINE         SUNNY     63  41  45 NW12G17   29.98S
LAKEVILLE      SUNNY     63  43  48 NW12      29.97F
EDEN PRAIRIE   SUNNY     63  41  44 NW13      29.97S
SOUTH ST PAUL  SUNNY     64  40  42 N8        29.97S
LAKE ELMO      FAIR      61  43  51 N8        29.99R
$$
MNZ001>005-007-008-013>017-022>024-027-028-202200-
   Northwest Minnesota

CITY           SKY/WX    TMP DP  RH WIND       PRES   REMARKS
BEMIDJI        SUNNY     52  39  61 N7        30.03S
HALLOCK        SUNNY     57  43  58 E5        30.03S
ROSEAU         SUNNY     52  39  62 E3        30.05S
WARROAD        SUNNY     48  39  71 E6        30.06S
THIEF RVR FALL SUNNY     54  39  58 CALM      30.05S
CROOKSTON      SUNNY     55  43  62 CALM      30.05S
FOSSTON        SUNNY     59  37  44 CALM      30.04F
DETROIT LAKES  SUNNY     59  37  44 N7        30.04S
MOORHEAD       SUNNY     63  43  48 NE7       30.04S
PARK RAPIDS    SUNNY     60  33  36 N9        30.01S
MAHNOMEN       FAIR      57  39  51 N7        30.03F
$$
MNZ006-009>011-018-025>026-202200-
   North Central Minnesota

CITY           SKY/WX    TMP DP  RH WIND       PRES   REMARKS
BAUDETTE       MOSUNNY   49  37  63 NW5       30.05F
FLAG ISLAND    SUNNY     48  36  61 NE3       30.04S
INTL FALLS     CLOUDY    47  36  65 NW5       30.05R
WASKISH        CLOUDY    48  39  71 CALM      30.05S
BIG FORK       CLOUDY    46  37  71 N6        30.05R
LONGVILLE      MOSUNNY   54  39  58 N7        30.02S
GRAND RAPIDS   CLOUDY    46  37  71 N7        30.03S
CRANE LAKE     CLOUDY    46  37  71 NW6       30.05R
ORR            CLOUDY    46  34  61 CALM      30.02R
COOK           CLOUDY    46  36  66 CALM      30.03S
WALKER         FAIR      54  38  54 N8        30.02S
$$
MNZ012-019>021-037-202200-
   Northeast Minnesota

CITY           SKY/WX    TMP DP  RH WIND       PRES   REMARKS
DULUTH         CLOUDY    48  39  71 N10       30.00R
ELY            CLOUDY    46  36  66 N3        30.01S
HIBBING        CLOUDY    49  36  61 N12       30.03R
EVELETH        PTSUNNY   45  36  70 N6        30.03R
DULUTH HARBOR  CLOUDY    52  45  76 N8        30.02R
TWO HARBORS    CLOUDY    52  28  40 NW6       29.99R
SILVER BAY     SUNNY     52  37  58 NW6       29.98S
GRAND MARAIS     N/A     51  38  60 VRB6      29.99R
G MARAIS ARPRT PTSUNNY   45  34  65 N9G17     29.98S
$$
MNZ029>031-032-039>041-046>048-054>057-064-202200-
   West Central Minnesota

CITY           SKY/WX    TMP DP  RH WIND       PRES   REMARKS
FERGUS FALLS   SUNNY     63  36  36 N13       30.03S
WHEATON        SUNNY     64  39  39 N9        30.03F
MORRIS         SUNNY     66  41  39 N13       30.01S
ALEXANDRIA     SUNNY     63  35  35 NW10      30.02S
ELBOW LAKE     FAIR      62  41  46 N9        30.02S
WADENA         SUNNY     61  39  44 NW9       30.01S
GLENWOOD       SUNNY     64  37  36 NW13      30.02S
APPLETON       SUNNY     70  36  28 N14       30.01F
BENSON         SUNNY     64  39  39 N12       30.01F
ORTONVILLE     SUNNY     68  39  34 N9        30.02S
MADISON        SUNNY     72  39  30 NW10      30.02S
WILLMAR        FAIR      66  37  34 NW9       30.02S
$$
MNZ033>034-036-042>043-049>051-058-059-202200-
   Central Minnesota

CITY           SKY/WX    TMP DP  RH WIND       PRES   REMARKS
ST CLOUD       SUNNY     65  40  39 NW9       29.99S
SAUK CENTRE    FAIR      63  38  40 N8        30.01R
PAYNESVILLE    SUNNY     62  37  39 NW7       30.00S
AITKIN         SUNNY     59  39  47 N8        30.00S
PINE RIVER     SUNNY     55  41  58 N9        30.05R
BRAINERD       SUNNY     55  39  54 N10       30.02R
STAPLES        SUNNY     61  30  31 N8        30.01S
LONG PRAIRIE   FAIR      61  39  44 NW7       30.01S
LITTLE FALLS   SUNNY     61  36  39 W8        30.01S
LITCHFIELD     SUNNY     64  37  36 NW9       30.00F
BUFFALO        SUNNY     62  38  40 W10       30.00S
MAPLE LAKE     SUNNY     63  40  42 NW10G17   30.01R
$$
MNZ037-044-045-052-053-202200-
   East Central Minnesota

CITY           SKY/WX    TMP DP  RH WIND       PRES   REMARKS
PRINCETON      SUNNY     61  43  51 N5        30.00R
MORA           SUNNY     55  39  54 NW10      30.02R
CAMBRIDGE      SUNNY     61  43  51 NW12      29.99R
RUSH CITY      SUNNY     57  41  55 N7        30.01R
MOOSE LAKE     CLOUDY    50  37  62 N8        30.00S
HINCKLEY       CLOUDY    54  41  62 N6G16     30.01R
CLOQUET        CLOUDY    52  37  58 N12       30.01R
MCGREGOR       MOSUNNY   52  41  66 N8G16     30.02F
$$
MNZ071>073-080-081-089-090-097-098-202200-
   Southwest Minnesota

CITY           SKY/WX    TMP DP  RH WIND       PRES   REMARKS
MONTEVIDEO     SUNNY     70  39  32 N13       30.02S
GRANITE FALLS  SUNNY     67  40  36 NW10      30.03S
CANBY          SUNNY     68  39  33 NW12      30.03S
MARSHALL       SUNNY     68  37  32 N12       30.02S
REDWOOD FALLS  SUNNY     68  39  34 NW13G18   30.01F
OLIVIA         SUNNY     68  39  34 NW15      30.00F
PIPESTONE      SUNNY     70  34  26 N7        30.04S
WINDOM         SUNNY     66  37  34 NW12G24   30.03R
WORTHINGTON    SUNNY     68  37  32 N14       30.04S
JACKSON        SUNNY     68  32  26 NW13G20   30.03S
TRACY          SUNNY     69  37  31 NW12      30.03S
SLAYTON        SUNNY     68  32  26 NW12      30.04S
$$
MNZ065>067-074>077-082>085-091>093-202200-
   South Central Minnesota

CITY           SKY/WX    TMP DP  RH WIND       PRES   REMARKS
MANKATO        SUNNY     66  39  37 N20       29.99S
NEW ULM        SUNNY     66  43  42 NW17G23   30.00S
ST JAMES       SUNNY     70  36  28 NW12G22   30.02S
FAIRMONT       SUNNY     68  30  24 NW14      30.01S
GLENCOE        SUNNY     66  41  40 NW13G18   29.99S
FARIBAULT      SUNNY     64  39  39 NW10      29.99S
OWATONNA       SUNNY     64  39  39 NW13      29.99R
WASECA         SUNNY     63  34  34 NW13      30.00S
ALBERT LEA     SUNNY     66  39  37 NW12G18   29.99R
$$
MNZ078>079-086>088-094>096-202200-
   Southeast Minnesota

CITY           SKY/WX    TMP DP  RH WIND       PRES   REMARKS
ROCHESTER      SUNNY     62  41  46 N12G20    29.98R
RED WING       SUNNY     63  39  42 N9        29.96S
STANTON        SUNNY     64  42  44 NW12      29.96S
DODGE CENTER   SUNNY     63  39  42 NW14G22   29.98R
WINONA         SUNNY     61  41  48 NW14      29.95S
AUSTIN         SUNNY     63  39  42 NW17      29.98R
PRESTON        SUNNY     60  41  49 N14       29.97R
$$
ABBREVIATIONS USED IN REMARKS
   TC - TEMPERATURES IN CELSIUS
  WCI - WIND CHILL INDEX
   HX - HEAT INDEX
  VSB - VISIBILITY
$$


USA.gov is the U.S. government's official web portal to all federal, state and local government web resources and services.